Terminal Aerodrome Forecast
Issued by NWS Austin/San Antonio, TX

Home | Current Version | Previous Version | Text Only | Print | Product List | Glossary On
Versions: 1 2 3 4 5 6 7 8 9 10 11 12 13 14 15 16 17 18 19 20 21
000
FTUS44 KEWX 200500
TAFDRT
TAF
KDRT 200521Z 2006/2106 09008KT P6SM SCT250
      TEMPO 2013/2015 BKN012
     FM201500 14013G23KT P6SM FEW060
     FM210200 10010KT P6SM SCT250=

USA.gov is the U.S. government's official web portal to all federal, state and local government web resources and services.